Regional Weather Roundup
Issued by NWS Mobile, AL

Home | Current Version | Previous Version | Text Only | Print | Product List | Glossary On
Versions: 1 2 3 4 5 6 7 8 9 10 11 12 13 14 15 16 17 18 19 20 21 22 23 24 25 26 27
000
ASUS44 KMOB 180912
RWRMOB
REGIONAL WEATHER ROUNDUP
NATIONAL WEATHER SERVICE MOBILE AL
300 AM CST MON DEC 18 2017

NOTE: "FAIR" INDICATES FEW OR NO CLOUDS BELOW 12,000 FEET WITH NO
      SIGNIFICANT WEATHER AND/OR OBSTRUCTIONS TO VISIBILITY.

  * THESE STATIONS ARE PART OF THE UNIVERSITY OF SOUTH ALABAMA
    MESONET AND ARE NOT UNDER NWS OR FAA QUALITY CONTROL.

ALZ061>064-181000-
COASTAL ALABAMA

CITY           SKY/WX    TMP DP  RH WIND       PRES   REMARKS
MOBILE REG APT FOG       64  63  96 CALM      30.15S VSB 1/2
BROOKLEY FIELD FOG       64  64 100 CALM      30.16R VSB 1/4
USA CAMPUS*    NOT AVBL
DOG RIVER*     NOT AVBL


CITY           SKY/WX    TMP DP  RH WIND       PRES   REMARKS
GULF SHORES    HVY RAIN  66  66 100 SW6       30.14S

$$

ALZ051>060-181000-
INTERIOR SOUTHWEST AND SOUTH CENTRAL ALABAMA

CITY           SKY/WX    TMP DP  RH WIND       PRES   REMARKS
GREENVILLE     FOG       59  56  89 CALM      30.14S VSB 1/2
EVERGREEN      CLOUDY    66  65  96 CALM      30.15S FOG
ATMORE*          N/A    N/A N/A N/A CALM        N/A
ANDALUSIA/OPP  FOG       71  68  90 W3        30.13S VSB 1/2
ANDALUSIA*       N/A     68  68 100 W3        30.14S
FLORALA APT    CLOUDY    69  66  90 SW6       30.16R
FLORALA*         N/A     68  66  94 CALM      30.86S

$$

FLZ001>006-181000-
WESTERN FLORIDA PANHANDLE

CITY           SKY/WX    TMP DP  RH WIND       PRES   REMARKS
PENSACOLA      CLOUDY    69  67  93 SW6       30.13S
NAS PENSACOLA  LGT RAIN  68  67  96 SW6       30.13S
MILTON         FOG       66  66 100 CALM      30.14R VSB 1/4
WHTNG S FIELD  CLOUDY    70  68  93 CALM      30.14R


CITY           SKY/WX    TMP DP  RH WIND       PRES   REMARKS
JAY*             N/A     66  66 100 W3        30.14S
DUKE FIELD     CLOUDY    66  66 100 S3        30.13S
CRESTVIEW      CLOUDY    68  67  96 CALM      30.15S FOG
VALPARAISO     LGT RAIN  67  67 100 CALM      30.13S
DESTIN         CLOUDY    73  69  87 VRB5      30.13F

$$

MSZ076-079-181000-
INTERIOR SOUTHEAST MISSISSIPPI

CITY           SKY/WX    TMP DP  RH WIND       PRES   REMARKS
LEAKESVILLE*   NOT AVBL
AGRICOLA*      NOT AVBL

$$

MARINE OBSERVATIONS

STATION/POSITION TIME  TEMP    WIND        PRES    WAVE
                       AIR SEA DIR/SP/G            HT/PER
                 (UTC) (F)     (DEG/KT/KT) (MB)    (FT/S)
PASCAGOULA       0848   64     320/  5/  6 1020.6R
PETIT BOIS ISLND 0848   63     190/  8/  9 1021.0R
KATRINA CUT      0830   62     170/ 12     1020.3F
CEDAR POINT      0830   65     170/  7     1020.3S
E DAUPHIN ISLAND 0800   65     210/  5/  6 1020.2R
MIDDLE BAY LIGHT 0830   58     100/  5     1020.0F
USCG MOBILE BAY  0848   61 56   CALM  /  2 1020.8R
STATE DOCKS      0848   61 56              1020.6S
MEAHER PARK      0830   61     360/  3     1020.7F
WEEKS BAY        0745   66                 1020.0S
FORT MORGAN      0848   67     200/ 10/ 11   N/A
12 S ORANGE BCH  NOT AVBL
PENSACOLA BAY    0806   67 55              1020.5
64 S DAUPHIN ISL 0850   75 74  200/ 10/ 12 1020.9R   4/ 7
67 S FORT MORGAN 0830   74                 1021.0S

$$

SELECTED LOCATIONS ACROSS THE REGION

CITY           SKY/WX    TMP DP  RH WIND       PRES   REMARKS
NEW ORLEANS    CLOUDY    67  67 100 S7        30.12S
GULFPORT       CLOUDY    64  63  96 CALM      30.14R
PASCAGOULA AP  CLOUDY    64  63  96 CALM      30.15R FOG
PASCAGOULA*    NOT AVBL
HATTIESBURG    LGT RAIN  58  58 100 CALM      30.16R VSB 1
LAUREL         LGT RAIN  57  56  96 NE6       30.15F FOG
MERIDIAN       FOG       52  51  97 CALM      30.17S VSB 3/4
JACKSON        FOG       58  56  93 CALM      30.14S VSB 1
MONTGOMERY     CLOUDY    53  50  89 CALM      30.16S FOG
TROY           CLOUDY    66  66 100 W3        30.14S FOG
ASHFORD*         N/A     68  68 100 W3        30.14S
DOTHAN         CLOUDY    68  68 100 SW9       30.17R FOG
PANAMA CITY    CLOUDY    69  68  96 MISG      30.14S

$$





USA.gov is the U.S. government's official web portal to all federal, state and local government web resources and services.